{"data":{"norad_id":40748,"intl_designator":"2015-037A","name":"BEIDOU-3S M2S (C58)","alt_names":[],"object_type":"PAYLOAD","status":"INACTIVE","operator":null,"country":"PRC","launch_date":"2015-07-25","launch_site_code":"XICLF","launch_vehicle":null,"mission":null,"orbit_class":"UNKNOWN","rcs_meters":16.1785,"size_class":null,"mass_kg":null,"dimensions":null,"purposes":["nav"],"wikipedia_slug":null,"has_3d_model":false,"image_url":null,"decayed_at":null,"tle_current":{"epoch":"2026-09-18T18:03:45.808128Z","epoch_age_seconds":165389,"freshness":"FRESH","line1":"1 40748U 15037A   26261.75261352 -.00000033  00000+0  00000+0 0  9992","line2":"2 40748  54.7847 298.8170 0011787 260.8778  99.0481  1.86232221 75861","mean_motion":1.86232221,"eccentricity":0.0011787,"inclination_deg":54.7847,"raan_deg":298.817,"arg_perigee_deg":260.8778,"mean_anomaly_deg":99.0481,"bstar":0,"rev_number":7586,"period_min":773.22817301309,"perigee_km":21495.036708265,"apogee_km":21560.822469642,"semimajor_km":27906.066588954,"source":"CELESTRAK","updated_at":"2026-09-20T09:00:46.673524Z"}}}